RH
85 90 92 88 88 87 87 87 87 86 84 82 84 84 81 82 82 89 95 89 88 90 54 57 58 75 53 43 52 39 43 51 82 85 75 65 69 44 34 27 70 88 84 90 78 79 75 33 26 33 34 37 30 25
92 90 87 86 87 89 90 88 88 88 87 87 86 84 86 83 83 81 95 92 78 90 91 76 70 70 64 50 42 43 45 43 55 76 61 57 86 77 43 51 29 73 62 77 54 57 45 38 36 33 33 34 34 34
93 88 85 86 87 91 89 88 91 91 86 86 86 87 88 84 86 77 90 94 97 94 80 82 72 68 59 54 50 60 42 41 56 69 58 63 72 62 84 59 40 30 42 61 59 47 45 38 40 34 31 37 28 26
92 90 88 89 87 90 92 92 94 90 87 87 87 88 84 87 83 78 94 92 95 74 95 82 72 57 42 51 51 62 57 64 59 48 63 75 76 38 64 48 56 38 31 43 45 38 31 27 41 40 37 34 31 28
94 88 90 90 89 89 92 92 92 88 90 86 87 86 86 85 82 87 90 90 83 74 88 89 61 40 47 50 50 52 63 74 85 87 89 78 64 56 52 50 52 30 34 47 62 36 46 45 42 36 36 32 29 32
94 92 92 91 90 88 87 88 91 89 86 88 90 88 86 87 86 93 98 97 80 63 71 87 50 55 58 54 53 49 57 73 83 75 82 53 42 50 82 61 32 26 27 26 35 37 48 48 39 34 40 40 32 34
95 94 94 94 90 90 88 87 86 86 84 84 85 84 90 87 79 82 79 76 70 60 66 64 63 45 44 55 65 69 60 86 96 85 90 60 52 47 74 72 28 25 24 23 23 32 36 28 45 45 46 41 39 32
95 95 94 94 93 95 89 88 90 86 89 89 89 89 87 86 83 86 69 76 70 63 50 68 73 75 48 74 80 70 81 80 80 81 76 69 56 78 70 38 33 29 28 31 54 49 47 48 46 42 43 45 47 44
94 93 94 93 93 91 92 91 90 92 90 88 85 82 81 92 93 88 79 66 72 64 68 68 82 92 90 78 78 84 73 92 69 86 82 66 78 86 93 84 72 62 63 60 54 53 51 52 49 47 50 53 56 58
92 91 91 91 90 90 90 88 86 83 79 77 79 87 98 92 83 71 74 84 86 73 68 82 54 97 77 100 97 96 95 98 86 80 74 90 85 80 85 92 83 79 69 60 68 69 66 67 60 56 53 54 53 59
94 91 90 91 87 84 83 83 80 82 85 84 85 99 90 85 81 88 86 76 72 82 59 61 75 91 86 98 100 96 97 100 98 82 85 81 89 89 90 94 87 81 73 68 64 62 61 60 61 62 67 78 84 87
89 91 89 88 89 88 86 85 86 83 78 90 79 77 86 94 98 93 97 100 96 71 79 89 87 80 96 91 100 99 100 100 100 93 99 96 92 84 83 91 88 90 84 80 78 82 84 83 84 90 94 95 95 92
89 89 87 86 90 89 90 90 90 91 82 74 73 83 80 94 94 96 87 92 100 99 100 98 98 99 98 98 100 100 100 100 100 98 95 94 82 82 89 88 88 87 87 87 89 88 88 90 90 94 96 96 94 95
88 88 86 84 87 88 89 88 90 79 68 83 95 96 99 91 90 95 96 98 100 100 98 100 100 100 100 100 100 100 100 99 97 92 92 90 94 96 95 95 88 96 96 96 96 95 95 94 96 96 96 96 94 96
91 91 91 89 87 86 85 82 75 56 68 84 74 90 90 94 94 92 96 97 99 99 99 100 100 98 98 99 98 98 95 90 89 93 94 96 96 96 96 96 96 96 96 96 96 96 96 96 95 96 96 96 95 95
88 85 92 92 87 84 82 68 61 60 71 74 79 89 84 86 88 89 91 92 90 97 100 100 100 93 94 85 79 92 76 90 93 94 95 94 96 97 96 96 97 97 96 96 96 96 95 95 95 96 94 95 96 95
83 78 85 77 72 68 74 68 66 75 86 89 95 93 93 88 93 93 93 91 90 99 98 91 85 96 77 77 81 81 91 94 95 94 93 95 96 96 96 96 96 95 95 96 95 95 96 96 93 89 92 95 93 94
78 78 86 85 82 73 64 63 71 73 88 92 93 96 94 95 95 93 92 93 93 86 85 92 83 86 91 89 91 94 95 96 96 95 95 96 96 96 95 95 95 94 94 95 94 94 94 94 92 94 93 93 91 92
87 83 85 81 74 72 81 78 61 83 93 93 92 91 93 96 94 96 96 94 87 88 88 89 91 92 94 94 96 97 97 95 95 94 94 96 96 96 95 94 94 94 94 94 92 91 90 90 89 90 90 82 88 92
88 88 84 80 72 70 81 78 60 70 75 84 92 85 83 86 83 84 83 71 64 69 79 86 91 94 93 94 94 95 95 92 88 91 92 92 92 90 94 91 91 90 83 76 76 75 71 74 75 76 79 82 87 86
90 88 76 64 64 67 77 71 66 71 76 78 77 74 81 75 79 82 78 59 78 73 85 89 92 94 90 89 82 78 84 80 89 87 87 88 87 76 73 72 72 71 75 78 80 79 80 79 74 76 85 88 85 88
91 77 73 66 65 64 69 66 63 59 63 67 62 62 73 84 82 76 64 78 85 90 90 87 87 82 81 85 82 76 78 74 75 74 74 72 76 77 78 76 73 80 78 80 78 85 80 73 75 76 83 86 79 78
68 62 72 78 95 90 80 58 81 57 73 66 61 66 75 78 64 49 75 73 88 85 78 76 78 69 72 68 68 64 59 57 62 63 70 67 66 76 73 73 75 81 78 68 63 71 80 74 75 82 80 80 82 82
65 90 97 93 84 92 87 81 55 60 64 64 64 74 74 72 55 66 82 81 84 69 76 87 67 64 62 64 63 60 57 56 64 72 65 60 65 64 61 62 65 70 70 62 69 77 77 83 79 76 81 80 82 82
75 88 90 87 84 80 78 78 75 67 73 68 71 75 77 63 72 74 80 84 82 88 87 79 73 71 79 75 66 62 63 54 60 63 70 62 67 60 62 64 65 63 69 81 81 81 81 83 81 79 77 82 80 78
87 84 79 77 77 75 72 78 76 75 72 76 79 70 74 71 72 84 80 91 87 87 91 92 84 72 67 60 64 65 63 53 55 68 59 56 62 75 74 74 75 79 71 80 80 79 76 76 78 76 78 74 80 79
81 84 73 62 64 66 76 74 67 74 78 80 75 75 72 76 82 83 84 82 82 86 76 79 70 67 66 64 63 62 62 62 64 59 58 58 61 64 75 82 83 78 73 76 79 79 79 78 78 78 80 77 80 81
75 74 87 80 79 71 78 75 76 78 79 71 68 82 80 80 85 88 78 80 80 72 73 72 73 70 75 74 76 75 75 75 76 66 70 67 65 70 72 79 74 72 76 79 77 79 79 80 80 80 80 81 84 80
78 72 70 88 75 76 81 79 80 74 71 83 77 77 78 78 80 83 82 76 74 78 86 85 84 80 79 76 79 78 76 78 72 68 67 75 79 86 73 75 75 77 77 77 74 75 75 81 80 81 78 81 79 78
80 70 74 78 82 85 90 81 88 85 69 73 69 69 74 79 89 74 80 84 88 89 86 83 84 86 86 88 85 81 82 81 84 86 85 85 87 79 78 80 79 80 80 79 78 74 72 78 80 81 83 81 80 82
67 70 70 72 82 85 85 85 84 80 84 88 82 82 83 85 82 79 79 80 81 82 82 83 83 80 79 78 80 76 90 87 82 80 80 78 76 78 81 79 79 79 79 80 80 80 80 80 80 81 79 80 80 82
76 73 78 81 86 84 91 92 80 84 85 82 86 82 88 85 84 86 81 81 81 86 94 80 82 87 81 80 81 85 84 77 77 78 74 80 80 81 78 77 81 80 79 80 80 81 80 80 82 82 83 81 82 83
81 80 78 81 87 82 85 78 70 79 76 78 81 81 85 86 88 89 76 82 92 86 81 85 82 82 79 76 77 80 79 82 88 91 90 89 89 89 87 81 82 82 80 82 81 81 80 78 81 81 83 85 85 85
Wind_Speed
26 28 28 21 18 21 24 23 24 27 34 36 35 36 36 33 32 19 6 15 12 5 7 6 6 7 14 15 14 12 13 11 8 9 8 6 7 11 13 10 11 7 7 6 6 7 14 1 7 18 9 10 7 10
28 20 14 14 13 16 16 19 17 21 33 33 33 34 33 33 31 24 6 8 10 8 3 2 1 8 12 18 11 11 16 11 8 8 7 6 4 7 11 10 13 8 11 5 7 3 13 11 11 6 7 5 7 6
17 13 13 10 10 12 7 5 10 20 29 31 32 32 32 31 32 16 8 9 4 5 1 1 5 8 11 9 5 8 10 14 12 7 6 3 5 4 2 8 8 6 17 9 6 14 18 10 6 5 8 8 10 9
14 12 7 8 10 10 9 7 4 27 31 31 32 31 32 32 33 17 9 9 3 2 5 1 5 11 9 4 1 4 7 6 7 9 9 4 5 7 7 7 8 7 7 13 11 15 17 17 10 17 6 5 7 5
12 9 9 11 13 13 15 17 21 32 33 32 31 31 32 32 26 10 8 10 7 2 4 3 14 8 4 4 6 6 3 4 6 1 4 6 4 8 4 6 7 10 13 9 4 7 7 5 5 14 6 6 12 5
11 12 11 12 14 16 19 21 25 29 31 31 33 33 34 28 20 7 4 3 3 2 4 6 6 10 10 7 5 9 10 3 6 5 6 5 14 7 3 6 9 13 13 10 8 2 2 3 7 7 6 9 11 8
14 14 14 14 14 16 18 20 24 28 29 31 34 33 26 23 9 3 3 9 9 2 2 2 3 7 16 10 4 4 11 3 3 2 5 10 7 5 4 8 9 12 14 16 13 7 9 10 3 8 6 10 12 6
19 17 17 16 18 17 21 24 27 30 32 32 31 26 21 17 7 7 7 11 5 3 4 2 0 2 4 5 4 6 6 6 7 4 6 7 5 2 8 10 14 16 16 11 11 9 7 7 6 7 6 6 6 7
19 22 23 28 27 29 30 32 31 31 35 32 27 19 10 7 4 2 5 6 2 2 2 3 2 3 7 1 3 3 5 4 4 4 2 3 4 2 9 15 18 15 11 12 11 7 7 8 6 5 5 5 5 5
21 23 25 26 28 29 29 31 31 28 22 18 9 5 4 3 15 10 5 3 1 4 3 2 4 3 1 3 2 1 1 1 4 5 4 2 5 7 15 14 14 16 17 12 10 10 10 9 7 3 5 4 5 7
19 19 21 22 25 27 29 28 25 20 10 2 3 4 7 7 3 2 3 3 3 3 4 3 4 5 3 1 1 3 4 2 5 6 8 5 5 9 14 11 12 14 15 16 14 12 12 9 7 7 10 14 14 16
19 19 21 22 21 20 17 13 10 1 4 2 7 6 3 2 3 4 3 3 4 3 3 5 4 4 4 4 2 4 3 3 5 2 5 4 7 13 12 12 13 12 13 13 14 15 16 17 15 16 14 13 14 15
19 18 19 18 16 15 11 10 11 10 3 3 4 3 1 3 3 1 5 3 2 5 4 1 3 2 2 4 3 5 9 3 2 4 6 6 12 11 11 9 12 13 13 14 15 15 16 17 17 16 15 12 14 15
18 17 15 12 12 12 10 11 14 8 4 4 4 5 5 5 6 5 5 5 3 3 6 4 3 1 2 5 3 3 4 3 4 6 6 8 12 11 9 9 10 12 13 14 15 16 17 18 17 17 15 14 15 16
18 16 13 12 14 11 8 6 7 6 6 7 7 7 7 4 5 5 5 4 4 4 3 1 1 1 3 4 5 3 5 7 8 6 5 9 11 10 11 11 12 13 13 14 14 15 17 17 18 18 16 15 16 16
14 9 4 2 6 4 1 6 7 5 5 5 9 5 8 6 8 8 7 5 6 6 3 2 3 4 8 5 6 9 5 7 5 5 6 8 12 12 12 12 13 13 14 15 14 16 16 17 17 17 17 16 16 16
3 4 3 8 11 14 9 4 5 9 7 6 5 7 6 3 6 6 6 7 5 4 4 4 7 8 3 6 6 7 5 6 7 6 7 11 12 12 12 14 14 15 15 15 16 16 16 15 15 16 17 14 15 14
5 5 7 10 8 5 5 6 6 7 7 5 4 6 5 5 8 6 6 8 3 3 3 6 4 8 7 5 4 4 6 7 7 7 8 9 12 13 12 14 14 15 16 16 16 16 15 14 14 10 11 11 11 11
9 7 9 11 6 4 5 5 4 7 4 3 4 5 5 5 9 8 5 7 9 8 5 5 8 5 5 5 6 7 7 6 7 8 9 12 11 11 11 13 14 15 15 14 14 11 11 15 12 10 9 9 9 8
12 15 15 10 7 4 5 3 3 6 4 4 5 9 9 8 8 11 12 9 7 6 8 8 6 6 5 6 6 6 7 7 7 8 9 8 8 12 13 11 9 11 11 13 12 12 10 10 10 10 10 10 8 9
8 5 8 5 4 7 5 3 5 4 5 4 4 6 6 9 13 15 12 11 13 8 8 8 8 9 10 9 8 8 10 10 9 8 9 8 8 9 9 9 10 9 9 9 9 10 11 9 8 8 8 8 8 8
1 5 3 3 4 5 5 7 4 3 4 5 6 6 5 7 9 9 10 10 9 10 9 9 9 9 10 13 11 12 12 12 11 9 10 9 8 8 8 8 8 8 8 8 8 8 8 8 7 7 7 7 7 7
2 2 3 4 5 6 3 3 4 4 4 3 3 5 5 4 5 5 6 7 6 7 8 9 11 12 12 12 12 13 12 12 9 10 8 8 9 8 8 9 8 7 7 8 8 7 7 8 7 7 7 7 7 6
6 6 6 5 6 5 2 4 3 4 4 4 4 5 5 4 4 6 6 5 5 6 6 6 6 8 9 11 10 9 8 8 8 8 7 7 7 8 8 8 8 8 8 7 7 7 7 7 7 7 7 7 7 7
5 8 4 7 4 4 4 4 4 4 5 5 4 5 4 3 4 5 4 4 5 5 5 6 7 7 7 8 7 8 9 8 7 8 8 8 7 5 7 8 8 9 8 7 7 7 6 6 6 6 7 7 8 7
8 9 6 4 4 4 3 4 4 5 4 4 5 3 2 3 4 5 4 5 6 6 6 5 5 7 8 8 7 7 7 5 7 7 8 8 8 6 5 5 5 7 7 6 6 6 6 6 6 7 6 6 6 6
6 6 4 3 3 5 6 6 6 6 5 4 3 2 2 4 5 4 5 6 6 4 5 6 6 7 7 6 6 7 6 7 7 7 6 7 7 7 7 6 6 4 5 7 6 6 6 6 6 6 5 6 6 5
6 5 6 5 7 7 6 5 5 5 4 4 2 4 4 4 4 4 4 5 6 6 6 7 8 7 7 6 5 4 4 4 5 4 6 6 6 6 6 5 3 2 4 3 4 5 6 7 6 6 6 5 4 4
5 5 5 7 7 8 9 6 5 4 5 4 3 4 4 3 4 7 6 6 5 5 5 5 5 5 5 6 6 6 6 6 5 4 3 3 2 5 5 4 4 4 4 5 4 3 4 4 5 4 5 5 5 5
4 3 6 7 6 7 6 6 6 4 6 7 7 10 10 6 6 5 4 3 4 6 5 5 3 3 3 2 5 5 5 6 6 5 5 5 4 3 3 4 5 5 5 5 5 6 5 6 7 4 3 3 4 5
4 4 6 7 6 7 7 7 7 8 9 9 8 9 8 5 3 5 5 5 4 4 4 4 3 3 2 2 4 2 4 5 4 5 5 3 2 3 4 4 4 4 5 6 6 6 6 5 6 7 7 6 6 5
4 5 6 6 5 4 5 3 3 5 5 7 6 4 4 4 4 3 2 1 2 3 3 2 3 5 5 4 4 4 4 3 3 2 3 4 5 6 6 6 5 4 5 6 6 7 7 6 6 7 7 8 8 7
9 9 9 7 6 5 2 3 3 4 4 4 3 3 4 4 4 4 2 2 4 4 4 4 6 5 5 4 4 3 1 5 4 4 4 4 4 4 5 5 5 6 7 7 7 7 8 9 7 8 8 9 9 9
Wind_Direction
298 295 290 282 276 269 257 246 240 234 220 206 201 198 195 192 191 178 176 213 195 203 175 157 157 227 248 221 215 213 212 225 169 229 196 188 192 229 243 209 160 153 181 211 226 240 247 244 255 219 227 218 248 285
304 294 296 301 295 307 268 235 244 248 197 185 187 188 188 183 182 168 174 221 196 227 82 47 178 253 259 267 258 205 217 207 183 212 211 207 248 191 215 238 184 179 171 208 237 210 318 224 234 286 300 286 273 294
312 323 316 311 325 331 294 223 245 182 173 171 175 174 177 169 164 163 165 182 154 136 150 183 159 199 246 266 313 233 223 194 190 165 257 236 213 226 183 230 236 243 181 205 156 276 283 273 260 278 308 307 299 309
330 334 2 9 24 22 43 31 275 175 159 158 159 164 159 156 158 158 162 174 114 151 122 179 323 228 203 221 290 350 312 322 270 230 222 181 234 233 217 227 212 219 208 207 221 219 237 267 315 295 232 288 290 291
345 21 42 47 48 50 61 66 77 131 137 142 147 146 144 147 147 147 153 161 209 72 134 124 208 183 171 224 218 199 259 289 265 182 291 191 212 264 273 216 228 214 231 245 239 243 248 258 208 238 227 272 263 199
22 54 65 61 64 68 75 82 94 108 121 129 133 135 135 135 135 107 76 345 93 246 109 180 217 172 170 189 205 233 218 247 229 198 241 245 197 215 251 248 231 251 272 278 285 232 54 304 320 326 304 299 290 180
49 59 73 71 77 79 83 87 98 108 118 124 127 125 122 130 124 121 133 144 196 96 359 179 185 204 182 178 214 250 211 200 304 212 271 213 222 222 262 264 251 235 251 270 286 322 291 257 298 357 346 316 314 318
50 81 76 80 85 83 100 101 102 110 108 113 121 119 114 111 108 47 47 124 135 69 254 229 166 172 207 174 217 195 189 172 244 177 229 183 202 259 230 254 256 266 281 290 18 3 341 360 347 310 351 331 337 307
64 74 80 90 90 91 103 108 108 97 100 102 102 97 69 42 64 72 46 60 18 0 248 172 225 146 335 172 228 189 183 175 245 205 228 173 191 147 4 358 2 3 355 339 338 339 332 322 313 350 342 331 323 340
61 79 84 90 96 97 95 96 103 104 102 76 57 62 96 86 139 136 44 83 166 228 237 203 213 109 259 2 302 161 95 184 241 209 114 252 100 58 11 351 346 350 348 346 355 357 355 344 327 333 323 350 6 60
71 75 81 85 94 103 106 104 102 103 114 204 93 44 92 148 57 82 130 167 133 235 209 210 184 134 155 89 321 269 160 232 215 179 186 200 84 6 355 345 358 351 348 17 6 15 14 360 346 68 51 43 51 59
83 78 82 90 94 99 103 102 139 312 34 17 91 101 110 143 189 134 147 144 208 231 133 159 149 130 138 157 161 238 193 202 192 119 84 72 23 360 357 4 13 10 17 30 36 43 42 43 44 67 66 67 67 74
85 85 86 83 65 61 48 31 20 9 313 157 155 120 72 351 114 9 170 170 139 350 354 1 125 126 123 96 238 220 199 175 100 74 81 46 352 8 13 21 35 37 43 51 53 59 62 63 60 60 65 62 72 74
87 88 81 64 56 61 42 8 352 348 20 44 34 57 14 39 42 24 346 348 2 332 335 328 91 171 211 195 262 67 54 52 51 53 66 4 15 17 28 39 49 48 51 56 57 60 62 64 63 62 63 66 71 71
88 71 56 35 43 42 57 48 8 47 45 44 17 40 44 351 46 353 337 311 13 334 323 234 96 36 20 47 7 32 64 69 28 59 27 1 17 28 40 47 56 59 60 60 61 64 65 66 69 69 67 72 74 75
102 86 51 8 14 26 228 67 36 52 58 56 42 22 355 8 11 0 352 336 0 333 278 310 42 48 44 27 41 17 58 42 58 41 29 16 31 35 44 52 56 60 63 65 63 64 67 65 67 70 66 63 66 70
265 69 166 133 92 54 55 74 48 49 35 34 59 25 1 345 339 337 336 328 308 302 43 35 44 31 57 46 51 18 38 69 66 50 54 44 41 44 50 52 50 53 58 62 64 63 65 65 67 67 67 62 66 65
93 95 18 345 327 47 35 43 68 65 61 16 25 19 22 4 350 3 10 352 16 55 37 56 50 36 32 47 54 87 84 78 67 54 43 56 57 53 51 57 56 56 57 56 54 53 53 57 59 59 70 74 76 70
85 66 22 10 13 76 67 47 68 90 81 93 60 44 21 37 22 7 30 38 46 41 77 59 56 40 56 25 60 79 85 82 88 79 63 47 45 58 66 63 57 52 52 55 57 55 53 49 48 45 50 49 47 39
58 27 2 349 359 86 87 64 116 93 95 134 129 84 60 42 43 46 34 30 53 61 56 49 48 50 61 55 41 35 110 113 104 93 79 70 62 55 48 50 54 63 63 56 50 51 55 54 51 50 45 36 50 46
33 317 336 348 47 54 63 57 65 97 137 76 116 77 75 57 44 36 42 39 38 45 71 75 76 63 59 62 61 56 53 56 64 70 80 76 63 66 66 62 57 56 57 55 56 46 38 47 40 42 54 63 39 27
308 283 344 4 72 62 61 12 77 82 73 101 71 59 69 48 47 49 48 39 61 47 54 69 70 71 66 63 70 72 80 80 79 77 69 66 64 60 56 55 62 59 54 57 60 49 53 43 22 51 33 27 70 63
257 345 31 31 73 57 51 357 57 23 72 79 65 50 47 53 44 67 68 39 60 62 68 73 82 84 87 81 69 60 61 71 71 71 69 66 66 63 60 51 44 48 55 52 50 50 58 23 52 38 38 33 24 38
31 45 30 41 49 84 70 40 47 65 45 49 58 68 43 41 88 72 68 62 57 48 51 89 102 96 77 62 54 51 60 69 74 64 65 79 77 70 64 58 48 36 36 40 48 43 34 43 20 42 42 36 17 20
71 18 0 60 42 83 76 66 35 61 56 55 65 57 48 25 62 72 81 95 64 60 52 56 73 84 90 85 77 63 43 58 65 65 33 27 43 61 92 84 62 41 21 28 29 48 36 33 25 22 38 51 13 17
73 22 26 41 42 61 62 81 68 64 71 67 56 64 10 55 68 70 72 92 75 53 31 38 76 75 58 55 65 50 25 32 85 68 49 38 27 26 41 38 66 56 32 17 20 21 42 29 36 21 23 52 56 10
72 66 47 3 64 102 100 69 60 56 55 57 63 51 66 72 77 80 86 69 88 63 40 36 61 83 91 87 75 64 57 46 54 75 73 65 54 47 43 42 43 24 14 11 16 11 12 10 15 10 23 11 31 8
55 43 72 54 59 31 73 56 45 46 58 354 59 41 52 42 77 54 90 94 96 87 70 57 51 59 63 64 67 75 95 131 145 147 123 104 82 68 52 81 78 35 353 49 15 360 360 353 356 357 12 349 354 348
70 97 82 42 62 53 31 32 62 48 331 308 76 79 88 48 87 112 109 113 119 116 105 101 93 97 96 85 61 43 34 14 20 53 34 36 70 67 41 25 11 26 357 342 8 22 26 335 335 347 333 323 323 331
72 59 91 48 55 59 36 47 79 68 67 75 93 104 99 79 65 97 121 129 107 84 85 92 109 109 96 110 99 84 58 40 23 10 14 34 40 25 355 17 354 4 345 346 341 336 335 3 313 280 266 302 327 0
89 84 77 67 78 98 118 121 98 76 61 71 78 96 115 120 81 36 57 75 95 122 122 111 99 92 98 43 18 44 119 97 67 55 19 358 21 337 21 356 338 350 324 328 336 320 333 324 318 318 317 329 315 299
43 78 115 105 117 158 209 202 86 92 103 91 94 119 168 145 109 122 115 161 160 120 47 74 131 111 77 74 84 83 35 66 81 57 28 1 354 15 356 343 320 322 329 327 310 306 307 317 310 312 307 316 327 328
100 88 97 110 135 140 170 159 108 105 77 79 61 30 33 20 86 95 126 345 3 90 110 78 80 87 87 56 56 104 199 95 84 68 74 48 5 352 315 306 340 349 334 319 315 307 306 308 309 316 315 306 302 312